Location: Santa Teresa Spring
(37.2333°N, 121.7000°W)
Time: 03:18:21
(UTC-07:00)

ISS - Visible Passes

Search period start: 27 May 2016 00:00
Search period end: 06 June 2016 00:00
Orbit: 402 x 404 km, 51.6° (Epoch: 27 May)

Date Brightness Start Highest point End Pass type
(mag) Time Alt. Az. Time Alt. Az. Time Alt. Az.
27 May -0.9 04:04:19 10° NNW 04:07:08 26° NNE 04:09:55 10° E visible
27 May -2.0 20:42:41 10° S 20:45:13 21° SE 20:47:47 10° E visible
27 May -1.5 22:18:31 10° W 22:21:31 33° NW 22:24:32 10° NNE visible
28 May -0.2 03:11:58 10° NNW 03:14:11 17° NNE 03:16:22 10° ENE visible
28 May -3.4 04:47:40 10° NW 04:50:55 66° SW 04:54:07 10° SE visible
28 May -2.9 21:25:28 10° WSW 21:28:42 66° NW 21:31:57 10° NE visible
28 May 0.2 23:04:11 10° NW 23:05:40 12° NNW 23:07:09 10° N visible
29 May 0.3 02:19:54 10° N 02:21:08 12° NNE 02:22:23 10° NE visible
29 May -2.7 03:54:56 10° NW 03:58:09 57° NE 04:01:22 10° ESE visible
29 May -0.2 22:10:18 10° WNW 22:12:38 18° NNW 22:14:59 10° NNE visible
30 May -1.4 03:02:23 10° NNW 03:05:19 30° NNE 03:08:15 10° E visible
30 May -2.3 04:38:58 10° WNW 04:41:41 24° SW 04:44:22 10° S visible
30 May -1.0 21:16:48 10° W 21:19:42 28° NNW 21:22:36 10° NNE visible
31 May -0.2 02:09:58 10° NNW 02:10:53 14° N 02:10:53 14° N visible
31 May 0.1 22:02:48 10° NW 22:03:54 11° NNW 22:05:01 10° N visible
01 Jun 0.1 01:17:47 10° N 01:18:39 12° N 01:18:39 12° N visible
01 Jun -0.2 21:08:43 10° WNW 21:10:51 16° NNW 21:12:58 10° NNE visible
03 Jun 0.1 01:07:58 10° NNW 01:08:11 11° NNW 01:08:11 11° NNW visible
03 Jun 0.2 21:01:34 10° NNW 21:02:06 10° NNW 21:02:39 10° N visible
04 Jun -0.1 00:15:41 10° NNW 00:16:53 14° N 00:16:53 14° N visible
04 Jun -0.1 23:23:58 10° N 23:24:28 10° NNE 23:24:58 10° NNE visible
